Elkins, WV

3:11 PM EST on November 13, 2019 (GMT -0500)
Elkins-Randolph County

Weather History for KEKN - September, 2019

Change the Weather History Date:

Saturday, September 28, 2019

  Actual Average Record
Temperature  
Mean Temperature 70 °F 58 °F  
Max Temperature 84 °F 69 °F 85 °F (1945)
Min Temperature 57 °F 46 °F 27 °F (1957)
Degree Days  
Heating Degree Days 0 8  
Month to date heating degree days 12 113  
Since 1 July heating degree days 19 143  
Cooling Degree Days 6 1  
Month to date cooling degree days 125 46  
Year to date cooling degree days 796 472  
Growing Degree Days 20 (Base 50)    
Moisture  
Dew Point 61 °F    
Average Humidity 73    
Maximum Humidity 93    
Minimum Humidity 51    
Precipitation  
Precipitation T in 0.11 in 2.68 in (1967)
Month to date precipitation 0.48 3.40  
Year to date precipitation 38.19 36.21  
Snow  
Snow 0.00 in 0.00 in 0.00 in (2016)
Month to date snowfall 0.0 0.0  
Since 1 September snowfall 0.0 0.0  
Snow Depth 0.00 in    
Sea Level Pressure  
Sea Level Pressure 30.13 in    
Wind  
Wind Speed 2 mph ()    
Max Wind Speed 16 mph    
Max Gust Speed 22 mph    
Visibility 9.9 miles    
Events Rain , Thunderstorm    
T = Trace of Precipitation, MM = Missing Value Source: Averaged Metar Reports

Daily Weather History Graph

Daily Weather History Graph

Search for Another Location

Airport or City:

Astronomy

Sep. 28, 2019 Rise Set
Actual Time 7:12 AM EDT 7:07 PM EDT
Civil Twilight 6:45 AM EDT 7:33 PM EDT
Nautical Twilight 6:14 AM EDT 8:04 PM EDT
Astronomical Twilight 5:43 AM EDT 8:35 PM EDT
Moon 6:47 AM EDT (9/28) 7:31 PM EDT (9/28)
Length of Visible Light 12h 47m
Length of Day
11h 54m
Waning Crescent, 0% of the Moon is Illuminated
Sep 28
Waning Crescent
Sep 28
New
Oct 5
First Quarter
Oct 13
Full
Oct 21
Last Quarter

Hourly Weather History & Observations

Time (EDT) Temp. Heat Index Dew Point Humidity Pressure Visibility Wind Dir Wind Speed Gust Speed Precip Events Conditions
12:51 AM 60.1 °F - 55.9 °F 86% 30.05 in 10.0 mi Calm Calm - N/A   Clear
1:51 AM 60.1 °F - 55.9 °F 86% 30.06 in 10.0 mi Calm Calm - N/A   Clear
2:51 AM 57.9 °F - 55.0 °F 90% 30.07 in 10.0 mi NNW 3.5 mph - N/A   Clear
3:51 AM 60.1 °F - 55.9 °F 86% 30.06 in 10.0 mi Calm Calm - N/A   Clear
4:51 AM 68.0 °F - 60.1 °F 76% 30.06 in 10.0 mi SE 5.8 mph - N/A   Scattered Clouds
5:51 AM 62.1 °F - 57.0 °F 84% 30.08 in 10.0 mi Calm Calm - N/A   Scattered Clouds
6:51 AM 62.1 °F - 57.9 °F 86% 30.09 in 10.0 mi Calm Calm - N/A   Clear
7:51 AM 62.1 °F - 57.9 °F 86% 30.12 in 10.0 mi Calm Calm - N/A   Clear
8:51 AM 66.9 °F - 61.0 °F 81% 30.12 in 10.0 mi Calm Calm - N/A   Scattered Clouds
9:51 AM 77.0 °F - 63.0 °F 62% 30.12 in 10.0 mi Variable 3.5 mph - N/A   Clear
10:38 AM 79.0 °F - 63.0 °F 58% 30.17 in 10.0 mi SSW 6.9 mph - N/A Thunderstorm Mostly Cloudy
10:51 AM 78.1 °F - 64.0 °F 62% 30.14 in 10.0 mi South 9.2 mph 18.4 mph N/A Thunderstorm Overcast
11:06 AM 79.0 °F - 64.0 °F 60% 30.18 in 10.0 mi SSW 6.9 mph - N/A   Mostly Cloudy
11:51 AM 79.0 °F - 63.0 °F 58% 30.16 in 10.0 mi Variable 5.8 mph - N/A   Mostly Cloudy
12:51 PM 80.1 °F 81.5 °F 63.0 °F 56% 30.17 in 10.0 mi WNW 11.5 mph 16.1 mph N/A   Mostly Cloudy
1:51 PM 81.0 °F 82.2 °F 63.0 °F 54% 30.16 in 10.0 mi WNW 8.1 mph 18.4 mph N/A   Mostly Cloudy
2:51 PM 78.1 °F - 64.9 °F 64% 30.14 in 10.0 mi SSE 8.1 mph - N/A   Mostly Cloudy
3:51 PM 82.0 °F 84.5 °F 66.9 °F 60% 30.12 in 10.0 mi Variable 5.8 mph - N/A   Clear
4:51 PM 84.0 °F 85.4 °F 64.0 °F 51% 30.10 in 10.0 mi SSW 5.8 mph - N/A   Clear
5:51 PM 81.0 °F 82.5 °F 64.0 °F 56% 30.13 in 10.0 mi West 3.5 mph - N/A   Clear
6:51 PM 75.9 °F - 64.9 °F 69% 30.14 in 10.0 mi Calm Calm - N/A   Clear
7:51 PM 70.0 °F - 64.0 °F 81% 30.17 in 10.0 mi Calm Calm - N/A   Clear
8:51 PM 68.0 °F - 63.0 °F 84% 30.17 in 10.0 mi Calm Calm - N/A   Clear
9:51 PM 66.9 °F - 62.1 °F 84% 30.18 in 10.0 mi Calm Calm - N/A   Mostly Cloudy
10:23 PM 66.0 °F - 62.1 °F 87% 30.22 in 10.0 mi Calm Calm - N/A Thunderstorm Scattered Clouds
10:51 PM 70.0 °F - 63.0 °F 78% 30.20 in 10.0 mi Calm Calm - 0.00 in Rain Light Rain
11:51 PM 64.9 °F - 61.0 °F 87% 30.20 in 7.0 mi Calm Calm - 0.00 in   Clear